International Skating Union - Official Site

ISU World Cup Inzell
December 4-6, 2015

Draw | Lap Times | Index | World Cup

Referee: Dan  IMMERFALL  (USA)
Starter: John Magne  ELIASSEN  (NOR)
StartTime: EndTime: Air Temp: Ice Temp: Humidity:
17:18 17:26 13℃ -6.5℃ 33%
Result Mass Start Men
Rankings as of Dec 6 2015 6:51PM
Rank: No.: Name: Nation: Time: Behind: Points:
1 39 Alexis  Contin FRA FRA 7:33.37 100
2 83 Jorrit  Bergsma NED NED 7:33.76 0.39 80
3 49 Fabio  Francolini ITA ITA 7:34.06 0.69 70
4 82 Haralds  Silovs LAT LAT 7:34.10 0.73 60
5 96 Arjan  Stroetinga NED NED 7:41.73 8.36 50
6 21 Robert  Watson CAN CAN 7:50.82 17.45 45
7 111 Reyon  Kay NZL NZL 7:57.39 24.02 40
8 50 Andrea  Giovannini ITA ITA 7:49.26 15.89 36
9 11 Jordan  Belchos CAN CAN 7:35.38 2.01 32
10 112 Peter  Michael NZL NZL 7:37.20 3.83 28
11 74 Cheol-Min  Kim KOR KOR 7:37.95 4.58 24
12 144 Joey  Mantia USA USA 7:39.41 6.04 21
13 73 Hyung-Joon  Joo KOR KOR 7:39.59 6.22 18
14 141 KC  Boutiette USA USA 7:40.77 7.40 16
15 31 Viktor-Hald  Thorup DEN DEN 7:40.91 7.54 14
16 3 Armin  Hager AUT AUT 7:40.95 7.58 12
17 132 Yevgeny  Seryaev RUS RUS 7:41.05 7.68 10
18 140 Livio  Wenger SUI SUI 7:41.27 7.90 8
19 65 Shane  Williamson JPN JPN 7:41.29 7.92 6
20 59 Shota  Nakamura JPN JPN 7:42.37 9.00 5
21 6 Mathias  Vosté BEL BEL 7:42.56 9.19 4
22 24 Longjiang  Sun CHN CHN 7:42.57 9.20 3
23 5 Linus  Heidegger AUT AUT 7:43.25 9.88 2
24 10 Vitaly  Mikhailov BLR BLR 7:46.88 13.51 1